Weather in Boulder

United States     40°10′08″N   105°06′18″W
В апреле 2022 года жителям России запретили посещать сайт meteo.paraplan.net по решению Генеральной прокуратуры. Аудитория сайта уменьшилась в 10 раз. Владельцы сайта не видят смысла в поддержке погодного сервера в таких условиях. Сайт будет закрыт в октябре.
temp.,
°C
wind,
m/s
gust,
m/s
humid.,
%
clouds,
%
prec.,
mm/h
press.,
hPa
HPBL,
m
4 october, tue
tue400:00+11sw22815 0.5 102011
03:00+10sw11785 0.8 101910
06:00+9nne22695 0.8 101910
09:00+13ne11625 0.0 1020198
12:00+18ese33451 0.0 1017949
15:00+21ese22346 0.0 10142030
18:00+19ese223960 0.0 101528
21:00+12nnw116367 0.3 101811
5 october, wed
wed500:00+12n33605 0.3 102021
03:00+11nnw33665 0.0 102240
06:00+9n33655 0.0 102234
09:00+13nne11500 0.0 1023243
12:00+18ese21390 0.0 10211139
15:00+21ese21340 0.0 10181918
18:00+19e22385 0.0 101927
21:00+13ese22500 0.0 102111
6 october, thu
thu600:00+12wnw11570 0.0 102210
03:00+10nne11620 0.0 102210
06:00+9nnw22680 0.0 102310
09:00+14n01475 0.0 1024203
12:00+20ese32345 0.0 10221307
15:00+22ese33285 0.0 10192120
18:00+19ene343499 0.0 102053
21:00+15ene334491 0.0 102331
7 october, fri
fri700:00+15ne334164 0.0 102476
03:00+11n46565 0.0 102583
06:00+8n48850 0.0 1027175
09:00+10nne347618 0.0 1027387
12:00+16ne21500 0.0 1024742
15:00+20ne223347 0.0 10201044
18:00+18ne223997 0.0 102011
21:00+16nw334610 0.0 102250
8 october, sat
sat800:00+11n336360 0.0 102431
03:00+10nnw22750 0.1 102416
06:00+9n22750 0.1 102410
09:00+13n11550 0.0 1025224
12:00+18ese22410 0.0 10211031
15:00+22ese32295 0.0 10171608
18:00+19e35335 0.0 101671
21:00+14ssw224652 0.0 101813